This demonstration page uses our WeatherBlox Daily Observations layout. Learn more.

Left ArrowRight Arrow

Hourly Observations for May 15, 2021

Temp ( °F °C ) Dew Point ( °F °C ) Humidity (%) Winds ( mph kmh ) Pressure ( in mb ) Visibility ( mi km ) Precip ( " mm )
12:15 am 00:15 Clear 52 11 43 6 72 72 SW 5 7 30.25 1025 10 16.0934 N/A
12:35 am 00:35 Clear 50 10 43 6 76 76 W 5 7 30.26 1025 10 16.0934 N/A
12:55 am 00:55 Clear 50 10 43 6 76 76 W 5 7 30.26 1025 10 16.0934 N/A
1:15 am 01:15 Clear 50 10 43 6 76 76 W 5 7 30.25 1024 10 16.0934 N/A
1:35 am 01:35 Clear 50 10 43 6 76 76 W 3 6 30.25 1024 10 16.0934 N/A
1:55 am 01:55 Clear 50 10 41 5 71 71 W 3 6 30.25 1024 10 16.0934 N/A
2:15 am 02:15 Clear 50 10 41 5 71 71 W 5 7 30.25 1024 10 16.0934 N/A
2:35 am 02:35 Clear 48 9 41 5 76 76 W 3 6 30.25 1024 10 16.0934 N/A
3:15 am 03:15 Clear 46 8 41 5 82 82 W 3 6 30.25 1024 10 16.0934 N/A
3:35 am 03:35 Clear 48 9 41 5 76 76 W 3 6 30.25 1024 10 16.0934 N/A
3:55 am 03:55 Clear 46 8 41 5 82 82 W 5 7 30.25 1024 10 16.0934 N/A
4:15 am 04:15 Clear 45 7 41 5 87 87 W 3 6 30.25 1024 10 16.0934 N/A
4:35 am 04:35 Clear 46 8 41 5 82 82 N N/A 30.25 1024 10 16.0934 N/A
4:55 am 04:55 Clear 45 7 39 4 81 81 N N/A 30.25 1024 10 16.0934 N/A
5:15 am 05:15 Clear 45 7 41 5 87 87 N N/A 30.26 1025 10 16.0934 N/A
5:35 am 05:35 Clear 43 6 41 5 93 93 N N/A 30.26 1025 10 16.0934 N/A
5:55 am 05:55 Clear 43 6 41 5 93 93 N N/A 30.27 1025 10 16.0934 N/A
6:15 am 06:15 Sunny 43 6 41 5 93 93 N N/A 30.27 1025 10 16.0934 N/A
6:35 am 06:35 Sunny 43 6 41 5 93 93 N 3 6 30.28 1025 10 16.0934 N/A
6:55 am 06:55 Sunny 45 7 41 5 87 87 N N/A 30.28 1025 10 16.0934 N/A
7:15 am 07:15 Sunny 46 8 43 6 87 87 N N/A 30.28 1025 10 16.0934 N/A
7:35 am 07:35 Sunny 50 10 43 6 76 76 NNW 3 6 30.28 1025 10 16.0934 N/A
7:55 am 07:55 Sunny 54 12 45 7 72 72 N N/A 30.28 1026 10 16.0934 N/A
8:15 am 08:15 Sunny 59 15 43 6 55 55 NNW 6 9 30.28 1025 10 16.0934 N/A
8:35 am 08:35 Sunny 61 16 43 6 52 52 NNW 6 9 30.28 1025 10 16.0934 N/A
8:55 am 08:55 Sunny 61 16 43 6 52 52 NNW 8 13 30.28 1025 10 16.0934 N/A
9:15 am 09:15 Sunny 63 17 41 5 45 45 NNW 7 11 30.28 1025 10 16.0934 N/A
9:35 am 09:35 Sunny 64 18 41 5 43 43 N 5 7 30.28 1026 10 16.0934 N/A
9:55 am 09:55 Sunny 64 18 41 5 43 43 NNW 5 7 30.28 1026 10 16.0934 N/A
10:15 am 10:15 Sunny 66 19 43 6 43 43 NNW 5 7 30.28 1025 10 16.0934 N/A
10:35 am 10:35 Sunny 68 20 45 7 43 43 NW 5 7 30.28 1025 10 16.0934 N/A
10:55 am 10:55 Sunny 68 20 43 6 40 40 N 5 7 30.28 1025 10 16.0934 N/A
11:15 am 11:15 Sunny 70 21 45 7 40 40 NNW 3 6 30.28 1025 10 16.0934 N/A
11:35 am 11:35 Sunny 70 21 43 6 38 38 NNE 3 6 30.28 1025 10 16.0934 N/A
11:55 am 11:55 Sunny 72 22 43 6 36 36 NNW 5 7 30.28 1025 10 16.0934 N/A
12:15 pm 12:15 Sunny 72 22 37 3 29 29 E 3 6 30.28 1025 10 16.0934 N/A
12:35 pm 12:35 Sunny 72 22 37 3 29 29 N N/A 30.27 1025 10 16.0934 N/A
12:55 pm 12:55 Mostly Cloudy 72 22 37 3 29 29 N N/A 30.27 1025 10 16.0934 N/A
1:15 pm 13:15 Mostly Cloudy 72 22 37 3 29 29 N 5 7 30.26 1025 10 16.0934 N/A
1:35 pm 13:35 Sunny 72 22 37 3 29 29 N N/A 30.25 1024 10 16.0934 N/A
1:55 pm 13:55 Sunny 73 23 37 3 27 27 N N/A 30.24 1024 10 16.0934 N/A
2:15 pm 14:15 Sunny 73 23 37 3 27 27 N 7 11 30.24 1024 10 16.0934 N/A
2:35 pm 14:35 Sunny 73 23 37 3 27 27 NW 7 11 30.23 1024 10 16.0934 N/A
2:55 pm 14:55 Sunny 73 23 36 2 25 25 N N/A 30.22 1023 10 16.0934 N/A
3:15 pm 15:15 Sunny 75 24 37 3 25 25 SW 5 7 30.22 1023 10 16.0934 N/A
3:35 pm 15:35 Partly Cloudy 73 23 34 1 23 23 N N/A 30.21 1023 10 16.0934 N/A
3:55 pm 15:55 Mostly Cloudy 75 24 36 2 24 24 N N/A 30.21 1023 10 16.0934 N/A
4:15 pm 16:15 Mostly Cloudy 73 23 36 2 25 25 N N/A 30.2 1023 10 16.0934 N/A
4:35 pm 16:35 Partly Cloudy 72 22 36 2 27 27 N N/A 30.2 1023 10 16.0934 N/A
4:55 pm 16:55 Sunny 72 22 36 2 27 27 N N/A 30.2 1023 10 16.0934 N/A
5:15 pm 17:15 Sunny 73 23 34 1 23 23 N N/A 30.2 1023 10 16.0934 N/A
5:35 pm 17:35 Partly Cloudy 72 22 36 2 27 27 N N/A 30.2 1023 10 16.0934 N/A
5:55 pm 17:55 Partly Cloudy 70 21 39 4 33 33 NW 5 7 30.2 1023 10 16.0934 N/A
6:15 pm 18:15 Sunny 70 21 37 3 31 31 N N/A 30.2 1023 10 16.0934 N/A
6:35 pm 18:35 Sunny 72 22 41 5 33 33 N N/A 30.2 1023 10 16.0934 N/A
6:55 pm 18:55 Sunny 72 22 37 3 29 29 N N/A 30.19 1022 10 16.0934 N/A
7:15 pm 19:15 Sunny 72 22 37 3 29 29 N N/A 30.2 1023 10 16.0934 N/A
7:35 pm 19:35 Sunny 72 22 41 5 33 33 N N/A 30.2 1023 10 16.0934 N/A
7:55 pm 19:55 Partly Cloudy 70 21 41 5 35 35 N N/A 30.2 1023 10 16.0934 N/A
8:15 pm 20:15 Mostly Cloudy 68 20 41 5 38 38 N N/A 30.2 1023 10 16.0934 N/A
8:35 pm 20:35 Mostly Cloudy 64 18 45 7 49 49 N N/A 30.2 1023 10 16.0934 N/A
8:55 pm 20:55 Mostly Cloudy 63 17 46 8 56 56 N N/A 30.22 1023 10 16.0934 N/A
9:15 pm 21:15 Partly Cloudy 61 16 46 8 59 59 N N/A 30.22 1023 10 16.0934 N/A
9:35 pm 21:35 Clear 63 17 45 7 52 52 SE 7 11 30.23 1024 10 16.0934 N/A
9:55 pm 21:55 Clear 63 17 43 6 49 49 SE 3 6 30.23 1024 10 16.0934 N/A
10:15 pm 22:15 Clear 57 14 46 8 67 67 N N/A 30.23 1024 10 16.0934 N/A
10:35 pm 22:35 Clear 55 13 46 8 72 72 N N/A 30.23 1024 10 16.0934 N/A
10:55 pm 22:55 Clear 54 12 46 8 77 77 N N/A 30.23 1024 10 16.0934 N/A
11:15 pm 23:15 Clear 55 13 45 7 67 67 N N/A 30.23 1024 10 16.0934 N/A
11:35 pm 23:35 Clear 54 12 46 8 77 77 N N/A 30.23 1024 10 16.0934 N/A
11:55 pm 23:55 Clear 55 13 45 7 67 67 S 3 6 30.24 1024 10 16.0934 N/A

Powered by AerisWeather